User: anonymous   Login
Location: Unspecified
(0.0000°N, 0.0000°E)
Time: 08:32:25
(UTC+02:00)
Language:

NATO 3D Rocket - Orbit

View from above orbital plane
View from above orbital plane
View from above satellite
View from above satellite

Ground track
Ground track

The orbit data is extracted from the following two-line orbital elements,

1 15392U 84115B   15113.92381127  .00000397  00000-0  23529-3 0  9996
2 15392 021.4903 299.3057 1034486 086.7712 054.4090 12.45483548386039
Epoch (UTC): 23 April 2015 22:10:17
Eccentricity: 0.1034486
inclination: 21.4903°
perigee height: 670 km
apogee height: 2297 km
right ascension of ascending node: 299.3057°
argument of perigee: 86.7712°
revolutions per day: 12.45483548
mean anomaly at epoch: 54.4090°
orbit number at epoch: 38603

The dashed part of the orbit path shows where the satellite is in the earth's shadow,  

DLR